Temperature
18 18 19 18 18 18 18 18 18 18 18 18 18 19 19 19 19 19 19 19 19 19 19 19 19 19 19 19 19 19 19 19 19 19 19 19 19 18 18 18 18 18 19
18 18 18 18 18 18 18 18 18 18 18 18 18 18 18 18 18 18 18 19 19 19 19 19 19 19 19 19 19 18 18 19 18 18 18 18 18 18 18 18 18 18 19
18 18 18 18 18 18 18 18 18 18 18 18 18 18 18 18 18 18 18 18 18 18 18 18 18 18 18 18 18 18 18 18 18 18 18 17 18 18 18 18 18 18 18
18 17 17 18 18 18 18 18 17 18 18 18 18 18 18 18 18 18 18 18 18 18 18 18 18 18 18 18 18 18 18 18 18 18 18 17 17 18 18 18 18 18 18
17 17 17 18 18 18 18 17 17 17 17 17 17 17 17 17 17 18 18 18 18 18 18 18 18 18 18 18 18 18 18 18 18 18 17 17 17 18 18 18 18 18 18
17 17 17 18 17 17 17 17 17 17 17 17 17 17 17 17 17 17 17 17 17 17 17 18 18 18 18 18 18 18 18 18 18 17 17 17 17 18 18 18 18 18 18
17 17 17 17 17 17 17 17 17 17 17 17 17 17 17 17 17 17 17 17 17 17 17 17 17 18 18 18 18 18 18 18 17 17 17 17 17 18 18 18 18 18 18
17 17 17 17 17 17 17 17 17 17 17 17 17 17 17 17 17 17 17 17 17 17 17 17 17 17 17 17 18 18 18 18 17 17 17 17 18 18 18 18 18 18 18
17 17 17 17 16 16 16 16 16 16 16 16 16 16 16 16 16 17 17 17 17 17 17 17 17 17 17 17 17 18 18 18 17 17 17 17 18 18 18 18 18 18 18
17 17 17 16 16 16 16 16 16 16 16 16 16 16 16 16 16 16 16 16 16 16 17 17 17 17 17 17 17 17 18 18 17 17 17 17 18 18 18 18 18 18 18
17 17 16 16 16 15 15 15 15 15 15 15 15 15 15 15 15 15 15 16 16 16 16 16 17 17 17 17 17 17 17 17 17 17 17 17 18 18 18 18 18 18 18
17 17 16 16 16 15 15 15 14 14 14 14 14 14 14 15 15 15 15 16 16 16 16 16 16 17 17 17 17 17 17 17 17 17 17 18 18 18 18 18 18 18 18
17 17 16 16 16 15 15 15 14 14 14 14 14 14 14 14 14 15 15 15 15 15 16 16 16 16 16 16 17 17 17 17 17 17 17 18 18 18 18 18 18 18 18
17 17 16 16 16 15 15 14 14 14 14 14 14 14 14 14 14 14 14 14 15 15 15 15 16 16 16 16 16 17 17 17 17 17 17 18 18 18 18 18 18 18 18
17 17 16 15 15 15 14 14 14 14 14 14 13 13 14 14 14 14 14 14 14 15 15 15 15 16 16 16 16 16 16 17 17 17 17 17 18 18 18 17 18 18 18
17 17 16 15 15 14 14 14 14 14 14 13 13 13 13 13 14 14 14 14 14 14 14 15 15 15 15 16 16 16 16 16 17 17 17 17 17 18 17 17 18 18 18
17 17 16 15 15 14 14 14 14 13 13 13 13 13 13 13 13 13 14 14 14 14 14 14 15 15 15 15 16 16 16 16 16 16 17 17 17 17 17 17 18 18 18
17 17 16 15 15 14 14 13 13 13 13 13 13 13 13 13 13 13 13 13 13 14 14 14 14 15 15 15 15 16 16 16 16 16 17 17 17 17 17 17 17 17 17
17 16 16 15 14 14 14 13 13 13 13 13 12 12 12 12 13 13 13 13 13 13 14 14 14 14 15 15 15 15 16 16 16 16 16 17 17 17 17 17 17 17 17
17 16 15 15 14 14 14 13 13 13 13 12 12 12 12 12 12 12 13 13 13 13 13 13 14 14 14 14 15 15 15 16 16 16 16 17 17 17 17 17 17 17 17
17 16 15 15 14 14 13 13 13 13 12 12 12 12 12 12 12 12 12 12 13 13 13 13 13 14 14 14 14 15 15 16 16 16 16 16 16 17 17 17 17 17 17
17 16 15 15 14 13 13 13 12 12 12 12 12 12 12 12 12 12 12 12 12 12 13 13 13 13 14 14 14 15 16 16 15 16 16 16 16 16 16 17 17 17 17
16 16 15 15 14 13 13 13 12 12 12 12 12 12 11 12 12 12 12 12 12 12 12 12 13 13 13 14 14 14 15 16 16 16 16 16 16 16 16 16 17 17 17
16 16 15 15 14 13 13 13 13 12 13 12 12 12 12 11 12 12 12 12 12 12 12 12 12 12 13 13 14 14 14 14 15 15 15 16 16 16 16 16 16 17 17
16 16 15 15 14 13 13 13 12 12 12 12 12 12 12 12 11 11 12 12 12 12 12 12 12 12 12 13 13 13 14 14 14 15 15 15 16 16 16 16 16 16 16
16 16 15 15 14 14 13 13 12 12 12 12 12 12 12 12 12 11 11 11 12 12 12 12 12 12 12 12 13 13 13 14 14 14 15 15 15 15 15 16 16 16 16
Wind_Speed
4 5 6 4 3 4 4 4 4 4 3 3 3 3 4 3 3 3 3 3 2 2 1 1 2 2 3 3 3 3 3 4 3 3 4 4 4 4 4 4 4 6 9
5 6 6 3 3 3 3 3 2 2 2 2 2 2 3 3 3 3 3 3 3 2 1 1 1 1 1 2 2 2 2 3 2 2 2 3 4 3 3 3 1 6 7
5 6 6 4 3 3 3 3 2 1 1 2 2 3 3 4 4 5 5 5 4 3 3 2 1 1 1 0 1 1 1 1 2 1 3 3 4 4 2 3 3 5 6
6 6 6 7 5 5 4 3 2 2 2 3 3 4 4 5 6 6 7 6 5 5 4 4 3 3 2 1 1 1 1 1 1 3 4 1 2 5 2 3 3 4 5
7 7 8 7 6 5 4 3 2 2 3 3 4 4 5 6 7 8 8 7 7 6 6 5 5 4 4 3 2 2 2 1 2 6 1 1 1 4 2 3 3 4 5
7 7 8 7 6 5 4 3 2 1 2 3 4 5 6 7 8 8 8 8 8 7 7 6 6 6 5 4 4 3 3 3 6 3 2 2 2 3 2 3 3 4 4
7 7 8 8 7 6 5 4 3 3 3 3 3 4 5 6 7 8 8 7 7 8 8 8 7 7 6 6 5 5 4 4 7 4 3 3 1 2 3 4 4 4 4
6 6 6 7 7 7 6 5 5 4 4 4 3 4 4 5 5 5 6 6 7 7 7 8 7 7 7 7 6 6 5 8 7 5 4 3 1 2 4 5 5 5 5
5 4 4 5 5 5 5 6 6 6 5 5 5 4 4 5 5 4 4 5 7 8 8 7 7 7 9 8 7 6 6 7 8 6 5 4 2 3 5 5 6 6 6
4 3 4 4 5 5 4 6 6 6 6 5 5 5 5 5 4 4 6 5 7 7 8 8 8 9 8 8 7 7 7 9 10 7 6 3 3 4 6 6 6 7 7
3 2 3 4 5 5 5 5 4 3 3 4 3 2 5 5 5 4 2 3 5 6 8 8 8 8 7 8 8 7 8 8 7 7 6 2 3 5 6 6 7 7 7
2 2 2 3 4 5 5 5 4 5 4 5 5 5 5 4 5 6 1 4 5 5 7 7 7 8 8 7 7 8 7 8 7 7 5 4 5 6 6 7 7 8 8
2 1 1 3 4 5 4 5 5 5 4 4 5 5 5 5 4 4 4 3 4 5 5 5 7 7 6 6 5 6 6 6 6 7 5 5 6 7 7 7 8 8 8
1 1 1 3 4 5 5 5 5 4 4 5 5 6 5 4 5 4 4 4 4 3 3 4 4 6 7 7 7 6 6 6 7 6 4 4 7 8 8 8 8 9 9
2 1 1 2 4 5 5 5 5 4 5 5 5 5 5 5 5 5 4 4 4 4 3 4 5 5 6 6 6 6 7 7 8 7 5 5 7 8 9 9 9 10 10
3 1 0 1 3 4 5 5 5 5 4 5 5 6 6 5 5 5 5 4 4 4 4 4 5 5 5 5 6 7 7 7 8 8 7 6 8 9 9 10 10 11 11
3 2 1 1 2 4 5 5 4 5 5 5 5 6 6 6 6 5 5 5 4 5 5 4 4 4 4 5 6 7 7 7 8 8 7 6 7 10 11 11 11 11 12
3 2 1 1 2 3 4 4 4 4 5 4 5 5 6 6 6 5 5 5 5 5 4 4 4 4 4 5 5 6 6 6 8 8 7 8 7 7 10 11 10 11 12
4 3 2 0 2 2 3 3 4 4 4 4 4 5 6 7 7 6 5 5 5 4 4 4 3 4 4 4 5 5 6 6 6 7 8 7 8 8 7 9 10 11 11
5 3 2 1 1 2 2 3 3 3 3 4 4 5 6 6 7 6 5 5 5 4 4 3 3 3 4 4 5 5 5 5 6 6 6 6 7 9 8 8 8 11 12
6 4 3 1 0 1 2 3 3 3 4 4 4 5 6 6 6 6 6 5 5 4 4 4 3 3 3 3 4 4 4 5 5 5 5 6 7 8 8 9 8 8 10
6 4 3 2 0 1 2 3 3 4 4 4 4 4 6 6 6 6 6 5 4 4 4 3 3 3 2 2 3 3 3 4 4 5 4 5 6 6 7 8 9 9 8
7 5 4 2 1 0 1 2 2 2 3 2 3 4 5 6 5 5 6 6 5 4 3 3 3 3 3 2 2 2 2 2 1 3 4 4 4 4 6 6 8 9 10
7 6 4 3 2 1 1 2 3 4 4 5 5 5 5 5 5 5 5 5 4 4 4 3 3 3 3 3 2 3 3 2 2 1 2 3 3 4 5 6 7 7 9
7 6 5 4 3 2 2 2 3 3 4 4 4 5 5 4 5 5 5 5 4 4 4 4 3 3 3 3 3 2 2 3 4 3 2 2 3 3 4 5 5 6 7
8 7 5 5 3 3 3 3 3 4 4 5 5 5 5 4 4 5 5 4 4 4 4 4 3 3 3 3 3 3 3 3 3 3 4 3 3 3 4 4 5 5 6
Wind_Direction
145 142 124 146 137 141 148 154 154 155 165 172 178 181 185 181 180 186 184 180 174 168 153 105 79 82 87 84 76 73 72 69 76 79 82 86 97 98 103 121 157 121 106
128 134 122 131 119 109 111 118 113 136 175 198 211 212 211 211 218 229 221 217 209 204 203 184 135 86 77 77 68 61 61 59 59 79 107 141 127 112 110 124 23 96 115
114 122 126 108 101 98 91 77 60 20 304 278 273 262 243 241 244 249 246 239 232 229 233 237 236 234 212 79 36 28 36 40 41 55 239 199 139 132 130 133 123 121 125
98 105 99 91 84 78 70 58 28 3 333 308 293 285 278 267 260 258 257 251 247 242 244 249 247 244 239 241 303 334 344 345 349 271 238 161 159 120 144 153 151 144 137
97 96 88 82 78 74 74 66 31 355 342 325 310 301 297 289 278 270 265 261 259 255 253 256 258 255 250 244 258 284 293 296 273 259 273 271 192 118 160 167 166 158 151
99 93 87 75 72 70 72 69 36 337 292 297 298 290 288 285 283 276 269 266 264 261 261 258 256 257 255 252 252 261 265 272 259 250 250 241 208 136 186 187 180 172 162
99 91 84 65 55 48 47 39 24 3 326 295 282 285 289 283 279 276 270 267 268 264 261 260 257 255 257 260 257 254 254 263 263 258 248 238 192 151 219 207 195 191 183
92 85 81 78 61 48 40 33 22 4 345 329 311 296 288 277 271 270 268 269 267 264 262 265 264 259 258 259 259 257 257 265 247 250 246 238 125 240 236 218 207 199 195
93 81 65 56 61 66 58 38 24 15 6 354 339 325 306 283 271 263 262 265 261 254 255 257 259 259 260 254 255 256 256 263 268 253 251 234 145 240 238 223 212 207 201
105 86 62 44 31 20 27 47 19 12 7 357 347 342 330 297 266 249 247 243 259 258 252 246 245 241 250 252 249 253 254 251 250 248 246 208 155 240 239 221 213 209 206
120 89 58 37 27 14 359 20 351 352 358 313 309 341 296 292 295 263 276 268 259 257 252 241 241 233 235 239 240 248 251 249 247 253 245 134 215 244 238 223 212 209 206
133 99 53 29 20 8 359 358 342 336 342 329 330 328 315 308 297 291 237 256 261 257 245 232 231 224 225 231 223 227 244 249 252 249 225 154 237 241 233 222 212 207 205
135 104 40 11 11 0 357 351 348 339 337 329 333 321 310 303 291 284 283 256 262 254 246 224 224 221 222 227 238 234 246 259 254 253 221 170 234 239 230 220 211 205 205
173 105 29 351 354 358 356 352 341 344 342 340 338 329 320 312 307 310 293 296 287 276 268 257 245 226 224 226 229 234 238 248 253 254 233 185 236 239 228 218 210 207 206
185 193 333 333 348 352 355 340 342 348 341 341 339 331 330 319 315 312 299 296 288 287 276 261 253 239 230 229 232 235 238 245 250 248 237 196 231 238 227 219 214 210 208
201 207 216 312 346 343 342 342 348 342 337 331 337 335 332 324 319 315 306 304 300 293 290 278 261 251 243 236 236 235 239 244 249 247 246 217 212 225 225 221 217 210 207
202 209 211 296 334 341 342 346 341 338 337 336 341 334 334 331 322 316 312 309 308 299 288 279 270 259 249 240 239 237 236 239 248 248 243 243 221 208 216 221 217 210 206
197 197 177 283 328 345 347 340 340 343 342 341 341 337 337 335 330 323 315 311 311 302 291 279 269 261 253 248 246 244 237 230 242 246 242 234 231 223 204 205 212 210 205
192 188 178 170 335 349 350 341 342 342 342 339 341 345 340 338 333 326 321 316 312 302 294 286 277 271 263 257 255 248 244 236 236 236 237 235 231 227 218 184 198 206 204
186 183 167 160 341 357 349 343 351 344 339 343 346 347 342 336 336 331 322 321 319 307 303 292 286 278 275 267 265 257 244 237 233 231 236 232 234 227 219 204 201 202 204
183 184 176 199 81 357 354 345 343 347 340 343 346 347 336 333 332 330 326 329 323 319 314 308 299 286 280 276 264 257 237 232 233 224 226 228 226 227 218 206 208 202 198
185 184 185 178 133 21 11 350 343 339 332 339 330 337 339 337 333 328 331 327 327 320 314 317 312 306 291 275 273 268 242 210 216 220 219 223 227 215 223 217 209 205 209
188 186 183 180 169 146 8 341 328 325 306 328 346 344 342 339 335 332 330 326 325 322 328 322 315 310 306 292 280 279 269 248 227 205 214 218 226 224 223 226 220 213 209
187 182 185 183 189 180 249 318 335 331 342 347 339 338 333 340 342 336 330 328 327 329 328 319 332 312 297 296 290 274 281 300 279 239 208 210 218 225 230 229 227 224 221
180 179 186 187 194 202 251 286 297 317 333 334 331 335 336 347 344 343 339 335 333 328 327 327 318 306 293 289 294 290 281 272 263 261 250 241 231 227 233 236 231 229 227
177 178 184 193 199 207 236 258 282 308 317 325 331 340 338 342 342 350 339 333 333 332 328 324 315 302 295 290 285 277 276 275 270 263 260 256 258 247 237 229 230 230 232
Height
1528 1529 1529 1530 1531 1532 1533 1533 1534 1535 1535 1535 1535 1536 1536 1536 1536 1536 1536 1535 1535 1535 1535 1534 1534 1534 1533 1533 1532 1532 1532 1531 1531 1530 1530 1530 1529 1529 1529 1529 1529 1530 1529
1528 1529 1529 1531 1531 1532 1533 1533 1534 1535 1535 1535 1535 1535 1536 1536 1536 1536 1536 1535 1535 1535 1535 1535 1534 1534 1533 1533 1533 1532 1532 1532 1531 1531 1531 1531 1530 1530 1530 1530 1530 1531 1530
1529 1529 1530 1531 1531 1532 1532 1533 1533 1534 1534 1534 1534 1535 1535 1535 1535 1535 1535 1535 1535 1535 1535 1534 1534 1534 1533 1533 1533 1532 1532 1532 1532 1531 1531 1532 1531 1531 1531 1531 1531 1531 1531
1529 1530 1530 1531 1531 1531 1532 1532 1532 1532 1533 1533 1533 1533 1534 1534 1534 1534 1534 1534 1534 1534 1534 1534 1534 1533 1533 1533 1532 1532 1532 1532 1532 1532 1533 1533 1533 1531 1531 1531 1531 1532 1532
1530 1530 1530 1530 1531 1531 1531 1531 1531 1531 1531 1531 1531 1531 1531 1532 1532 1532 1532 1532 1532 1532 1533 1533 1533 1533 1532 1532 1532 1532 1532 1532 1532 1532 1533 1532 1532 1531 1531 1531 1532 1532 1532
1531 1531 1531 1531 1531 1530 1530 1530 1530 1529 1529 1529 1529 1529 1529 1529 1530 1530 1530 1530 1530 1531 1531 1531 1532 1532 1532 1532 1531 1531 1531 1531 1531 1533 1532 1532 1532 1531 1531 1531 1532 1532 1533
1532 1532 1531 1531 1530 1530 1529 1529 1528 1528 1527 1527 1527 1527 1527 1527 1527 1527 1527 1528 1528 1528 1529 1530 1530 1531 1531 1531 1531 1531 1530 1531 1531 1532 1531 1531 1531 1531 1531 1531 1531 1532 1533
1532 1532 1532 1531 1530 1529 1529 1528 1527 1526 1526 1525 1524 1524 1524 1524 1524 1524 1524 1525 1525 1526 1526 1527 1528 1529 1529 1529 1529 1529 1529 1530 1531 1532 1531 1531 1530 1530 1531 1531 1531 1532 1533
1532 1532 1532 1532 1531 1529 1528 1527 1526 1525 1524 1523 1522 1522 1521 1521 1521 1521 1521 1522 1522 1523 1524 1525 1525 1526 1527 1527 1527 1528 1528 1528 1529 1530 1531 1530 1529 1529 1530 1530 1531 1531 1532
1533 1532 1532 1531 1530 1529 1528 1525 1524 1523 1522 1521 1520 1519 1519 1519 1518 1518 1518 1518 1519 1520 1521 1521 1522 1523 1524 1525 1525 1526 1526 1527 1528 1529 1529 1529 1528 1529 1529 1529 1530 1531 1532
1533 1532 1532 1531 1529 1528 1527 1525 1523 1522 1521 1520 1519 1518 1517 1518 1517 1517 1516 1516 1516 1516 1517 1518 1519 1520 1521 1522 1523 1524 1524 1526 1527 1527 1528 1527 1527 1528 1528 1529 1529 1530 1531
1533 1532 1532 1530 1529 1527 1526 1524 1522 1522 1520 1519 1518 1517 1516 1516 1515 1515 1513 1513 1513 1513 1514 1515 1516 1517 1519 1520 1521 1521 1523 1523 1524 1526 1526 1525 1525 1526 1527 1528 1528 1529 1531
1533 1532 1531 1530 1529 1527 1526 1524 1522 1520 1519 1518 1517 1516 1515 1515 1514 1514 1513 1512 1511 1511 1512 1512 1513 1514 1516 1517 1518 1519 1520 1521 1522 1524 1524 1523 1524 1525 1526 1527 1528 1529 1530
1532 1531 1531 1529 1528 1527 1525 1523 1522 1520 1519 1518 1516 1515 1515 1514 1513 1512 1511 1510 1510 1509 1509 1509 1510 1511 1512 1514 1515 1516 1518 1519 1520 1521 1521 1521 1522 1523 1524 1525 1527 1528 1529
1531 1530 1530 1528 1527 1526 1524 1522 1521 1520 1518 1517 1515 1514 1513 1512 1512 1511 1510 1508 1508 1508 1507 1507 1508 1509 1510 1511 1512 1513 1514 1516 1517 1518 1519 1519 1520 1521 1522 1524 1525 1527 1528
1530 1530 1529 1528 1526 1525 1524 1522 1521 1519 1517 1516 1515 1514 1512 1511 1510 1509 1508 1507 1507 1506 1506 1505 1506 1506 1507 1508 1509 1510 1511 1513 1515 1516 1517 1517 1518 1519 1521 1522 1524 1525 1527
1529 1528 1527 1526 1525 1524 1522 1521 1519 1518 1517 1515 1514 1513 1511 1510 1509 1507 1506 1506 1505 1504 1504 1504 1504 1504 1504 1505 1506 1507 1508 1509 1511 1513 1514 1515 1517 1517 1519 1520 1522 1523 1525
1527 1527 1526 1525 1524 1523 1521 1519 1519 1517 1516 1514 1513 1511 1510 1509 1507 1506 1504 1504 1503 1502 1502 1502 1502 1502 1503 1503 1504 1505 1506 1507 1508 1510 1511 1513 1515 1516 1517 1518 1520 1522 1524
1525 1526 1525 1524 1523 1522 1520 1518 1517 1516 1514 1514 1512 1511 1509 1507 1506 1505 1503 1502 1501 1501 1500 1500 1500 1500 1500 1501 1501 1502 1503 1504 1505 1506 1508 1510 1512 1514 1516 1516 1518 1520 1522
1523 1524 1523 1523 1522 1521 1519 1518 1517 1515 1514 1513 1511 1509 1507 1506 1504 1503 1502 1501 1500 1499 1498 1498 1498 1498 1498 1498 1499 1500 1500 1501 1502 1504 1505 1507 1509 1511 1513 1514 1516 1517 1519
1522 1522 1522 1522 1521 1520 1519 1518 1517 1516 1514 1512 1510 1508 1506 1505 1503 1502 1501 1500 1498 1498 1497 1497 1497 1497 1497 1497 1498 1498 1499 1499 1500 1501 1503 1504 1506 1508 1510 1512 1514 1516 1517
1520 1521 1521 1521 1520 1519 1517 1517 1515 1514 1513 1511 1509 1508 1506 1504 1502 1501 1500 1499 1498 1496 1496 1496 1495 1495 1495 1496 1497 1497 1497 1498 1497 1499 1500 1501 1504 1505 1507 1510 1511 1513 1515
1518 1519 1519 1519 1519 1518 1517 1516 1515 1514 1513 1512 1510 1507 1505 1503 1502 1500 1499 1498 1497 1496 1495 1495 1494 1494 1494 1495 1495 1496 1496 1495 1496 1497 1498 1499 1500 1502 1504 1506 1508 1510 1512
1516 1517 1518 1518 1518 1517 1516 1516 1515 1514 1513 1511 1509 1507 1505 1503 1501 1500 1499 1497 1497 1496 1495 1494 1494 1493 1493 1494 1494 1494 1495 1495 1496 1496 1496 1497 1498 1499 1501 1503 1505 1507 1509
1514 1515 1516 1516 1516 1516 1515 1514 1514 1514 1512 1511 1509 1507 1505 1503 1501 1499 1498 1497 1496 1495 1495 1494 1493 1493 1493 1493 1493 1493 1493 1493 1494 1495 1495 1496 1497 1497 1498 1500 1502 1504 1506
1512 1513 1514 1515 1515 1514 1514 1514 1513 1512 1511 1510 1509 1507 1505 1504 1501 1500 1497 1496 1495 1495 1494 1493 1492 1492 1492 1491 1491 1492 1492 1492 1493 1493 1493 1493 1494 1496 1496 1497 1498 1500 1502